Regional Weather Roundup
Issued by NWS Upton, NY

Current Version | Previous Version | Graphics & Text | Print | Product List | Glossary Off
Versions: 1 2 3 4 5 6 7 8 9 10 11 12 13 14 15 16 17 18 19 20 21 22 23 24 25 26 27 28 29 30 31 32 33 34 35 36 37 38 39 40 41 42 43 44 45 46 47 48 49 50
000 ASUS41 KOKX 041308 RWROKX REGIONAL WEATHER ROUNDUP NATIONAL WEATHER SERVICE NEW YORK NY 900 AM EDT SAT JUL 04 2015 NOTE: "FAIR" INDICATES FEW OR NO CLOUDS BELOW 12,000 FEET WITH NO SIGNIFICANT WEATHER AND/OR OBSTRUCTIONS TO VISIBILITY. NYZ071-072-176-178-NJZ106-104-041400- NEW YORK CITY METRO AREA CITY SKY/WX TMP DP RH WIND PRES REMARKS CENTRAL PARK CLOUDY 71 60 68 NE6 29.97S LAGUARDIA APRT CLOUDY 70 62 76 NE8 29.94S KENNEDY INTL CLOUDY 73 60 63 E8 29.95S NEWARK/LIBERTY CLOUDY 73 58 59 NE7 29.94S BRNX BOT. GARD N/A 68 61 77 N3 29.95S TETERBORO CLOUDY 71 59 65 NE5 29.93S $$ NYZ177-179-078>081-041400- LONG ISLAND NEW YORK CITY SKY/WX TMP DP RH WIND PRES REMARKS FARMINGDALE CLOUDY 71 58 63 E8 29.95S ISLIP CLOUDY 69 61 75 E6 29.94S SHIRLEY CLOUDY 69 63 81 E6 29.97R WESTHAMPTON CLOUDY 69 63 81 E6 29.97S MONTAUK POINT N/A 69 64 84 NE6 29.98F $$ NYZ052-065-067-041400- HUDSON VALLEY CITY SKY/WX TMP DP RH WIND PRES REMARKS WHITE PLAINS CLOUDY 67 63 87 E5 29.96S NEWBURGH NOT AVBL MONTGOMERY LGT RAIN 64 61 90 CALM 29.98R FOG POUGHKEEPSIE CLOUDY 67 60 78 CALM 29.96R ALBANY CLOUDY 63 56 78 CALM 29.97S $$ NJZ001-105-106-008-010-013-015-019>022-104-041400- NEW JERSEY CITY SKY/WX TMP DP RH WIND PRES REMARKS NEWARK/LIBERTY CLOUDY 73 58 59 NE7 29.94S TETERBORO CLOUDY 71 59 65 NE5 29.93S CALDWELL CLOUDY 70 61 73 NE3 29.95S MORRISTOWN CLOUDY 73 70 88 N5 29.95S SOMERVILLE CLOUDY 71 64 78 N3 29.93R SUSSEX LGT RAIN 64 60 87 N3 29.97S ANDOVER N/A 65 61 87 VRB3 29.97R TRENTON CLOUDY 70 64 81 E5 29.93R MILLVILLE SUNNY 75 65 70 E10 29.89S ATLANTIC CITY MOSUNNY 75 66 73 E12 29.90R WRIGHTSTOWN PTSUNNY 73 66 77 E9 29.89F TOMS RIVER PTSUNNY 75 61 60 E8 29.92S BELMAR CLOUDY 72 63 73 E7 29.93S $$ PAZ047>061-062-071-041400- EASTERN PENNSYLVANIA CITY SKY/WX TMP DP RH WIND PRES REMARKS PHILADELPHIA PTSUNNY 74 66 76 NE8 29.91F ALLENTOWN LGT RAIN 68 64 87 NE6 29.96R FOG SCRANTON LGT RAIN 63 62 97 E3 29.98S FOG $$ CTZ002-004>006-009-010-012-RIZ004-006-007-MAZ004-011-015-041400- SOUTHERN NEW ENGLAND IN CT CITY SKY/WX TMP DP RH WIND PRES REMARKS BRADLEY INTL CLOUDY 63 56 78 N3 29.98S HARTFORD CLOUDY 66 60 81 VRB5 29.98S DANBURY CLOUDY 66 58 75 NE5 29.99S WTRBRY/OXFORD CLOUDY 64 57 77 CALM 30.00R BRIDGEPORT CLOUDY 69 64 84 E10 29.97R MERIDEN CLOUDY 67 60 78 NW5 29.98S NEW HAVEN CLOUDY 69 60 73 E7 29.97S CHESTER FAIR 64 61 88 E3 29.99S GROTON CLOUDY 67 60 78 E8 29.97S WILLIMANTIC CLOUDY 64 59 83 N3 29.99F IN RI CITY SKY/WX TMP DP RH WIND PRES REMARKS PROVIDENCE CLOUDY 69 61 75 SE3 30.00S BLOCK ISLAND CLOUDY 66 63 88 E8 29.98F WESTERLY CLOUDY 67 62 84 NE6 29.98F IN MA CITY SKY/WX TMP DP RH WIND PRES REMARKS BOSTON CLOUDY 66 62 87 SE5 30.00S WORCESTER CLOUDY 65 54 67 SW6 30.01S WESTFIELD CLOUDY 62 55 77 CALM 30.00S PROVINCETOWN CLOUDY 72 14 11 S6 30.01S NANTUCKET CLOUDY 67 54 63 E7 30.01R $$ ANZ330-335-338-340-345-350-353-355-041400- COASTAL MARINE OBSERVATIONS STATION/POSITION TIME SKY/WX TEMP WIND PRES VSBY WAVE AIR SEA DIR/SP/G HT/PER (UTC) (F) (DEG/KT/KT) (MB) (MI) (FT/S) NY HARB ENTRANCE 1250 69 69 90/ 10/ 12 1013.1 3/ 8 4S FIRE IS 1203 70 N/A 3/ 8 20S FIRE ISLAND 1250 69 68 80/ 8/ 10 1013.3 3/ 8 GREAT SOUTH BAY 1200 69 74 110/ 12/ 14 N/A 23SW MTP 1250 68 67 90/ 10/ 12 1013.9 4/ 8 HUDSON CANYON NOT AVBL KINGS POINT 1200 69 66 20/ 2/ 4 1013.4 CENTRAL LI SOUND NOT AVBL EASTERN LI SOUND 1200 65 64 60/ 6/ 8 N/A ROBBINS REEF 1200 71 80/ 6/ 7 1012.7 $$ >>>>>>>>>>>>>>>>>>>>>>>>>>>> KEY <<<<<<<<<<<<<<<<<<<<<<<<<<< > < > SKY/WX - SKY CONDITION/PRESENT WEATHER < > TMP - TEMPERATURE IN FAHRENHEIT < > DP - DEWPOINT IN FAHRENHEIT < > RH - RELATIVE HUMIDITY IN PERCENT < > WIND - DIRECTION AND SPEED IN MPH < > PRES - MEAN SEA LEVEL PRESSURE IN INCHES OF HG < > WCI - WIND CHILL INDEX < > VSB - VISIBILITY IN MILES < > HX - HEAT INDEX < > TC - TEMPERATURE IN CELSIUS < > VRB - VARIABLE WIND DIRECTION < > < >>>>>>>>>>>>>>>>>>>>>>>>>>>> KEY <<<<<<<<<<<<<<<<<<<<<<<<<<<

USA.gov is the U.S. government's official web portal to all federal, state and local government web resources and services.